Regional Weather Roundup
Issued by NWS

Home | Current Version | Previous Version | Graphics & Text | Print | Product List | Glossary Off
Versions: 1 2 3 4 5 6 7 8 9 10 11 12 13 14 15 16 17 18 19 20 21 22 23 24 25 26 27 28 29 30 31 32 33 34 35 36 37 38 39 40 41 42 43 44 45 46 47 48 49 50

000
ASUS43 KDMX 201601
RWRIA

WEATHER ROUNDUP FOR IOWA
NATIONAL WEATHER SERVICE DES MOINES IA
1000 AM CST MON FEB 20 2017

NOTE: "FAIR" INDICATES FEW OR NO CLOUDS BELOW 12,000 FEET WITH NO
SIGNIFICANT WEATHER AND/OR OBSTRUCTIONS TO VISIBILITY.

* - THESE STATIONS ARE NOT NWS STATIONS...THUS NOT UNDER NWS
QUALITY CONTROL.  THEY ALSO DO NOT REPORT WEATHER SUCH
AS PRECIPITATION OR FOG.

IAZ001>003-012>014-020>022-031>034-043>046-201700-
   NORTHWEST IOWA

CITY           SKY/WX    TMP DP  RH WIND       PRES   REMARKS
CARROLL *      CLOUDY    57  57 100 S16       29.76F FOG
CHEROKEE *     CLOUDY    55  55 100 S8        29.72S FOG
DENISON *      CLOUDY    57  55  94 S16       29.73F FOG
LE MARS *      CLOUDY    57  57 100 S14G20    29.70S FOG
SHELDON *      CLOUDY    54  54 100 S17       29.67F FOG
SIOUX CITY     CLOUDY    58  56  93 S13       29.70F FOG
SPENCER        CLOUDY    53  52  96 S15       29.72F FOG
STORM LAKE *   FOG       52  52 100 SE12      29.73F VSB 1/2
$$

IAZ055>058-069>071-079>083-090>094-201700-
   SOUTHWEST IOWA

CITY           SKY/WX    TMP DP  RH WIND       PRES   REMARKS
ATLANTIC *     LGT RAIN  57  57 100 S8        29.78F
CLARINDA *     CLOUDY    59  59 100 S10         N/A
COUNCIL BLFS * CLOUDY    57  57 100 S8        29.75F FOG
CRESTON *      CLOUDY    57  57 100 S15G21    29.82F FOG
HARLAN  *      CLOUDY    57  57 100 S10       29.79F FOG
LAMONI         LGT RAIN  58  56  93 S12G20    29.83S
RED OAK *      CLOUDY    57  57 100 S7        29.78S FOG
SHENANDOAH *   CLOUDY    59  57  94 S10       29.78S FOG
$$

IAZ047>049-059>061-072>074-084-201700-
   CENTRAL IOWA

CITY           SKY/WX    TMP DP  RH WIND       PRES   REMARKS
AMES           CLOUDY    54  54 100 SE7       29.81F FOG
ANKENY *       CLOUDY    59  55  88 S10       29.83S
BOONE *        CLOUDY    54  54 100 SE10      29.80R FOG
CHARITON *     CLOUDY    63  55  77 S12G18    29.83S
DES MOINES     CLOUDY    61  55  81 S13       29.82F
GRINNELL*      CLOUDY    57  52  85 SE16      29.87F
KNOXVILLE *    PTSUNNY   63  54  72 S20G25    29.82F
MARSHALLTOWN   CLOUDY    54  52  93 SE13      29.84F FOG
NEWTON *       CLOUDY    59  54  82 SE16      29.84S
PELLA *        CLOUDY    62  54  75 SE8       29.86F
PERRY *        RAIN      56  55  97 S9        29.81R
$$

IAZ004>006-015-016-023>025-035-036-201700-
   NORTH CENTRAL IOWA

CITY           SKY/WX    TMP DP  RH WIND       PRES   REMARKS
ALGONA *       CLOUDY    52  52 100 SE17G23   29.76F FOG
CLARION *      CLOUDY    52  52 100 S13       29.81S FOG
ESTHERVILLE    LGT RAIN  50  50 100 SE14      29.73F FOG
FORT DODGE *   CLOUDY    55  52  88 S9        29.79F
MASON CITY     LGT RAIN  48  47  96 SE14      29.83S FOG
FOREST CITY *  LGT RAIN  48  48 100 SE14      29.81S
IOWA FALLS *   CLOUDY    51  50  97 SE12      29.84F FOG
$$

IAZ007>011-017>019-026>030-037>042-050>054-066-201700-
   NORTHEAST IOWA

CITY           SKY/WX    TMP DP  RH WIND       PRES   REMARKS
CEDAR RAPIDS   CLOUDY    55  53  93 SE17G24   29.89F FOG
CHARLES CITY * HVY RAIN  48  48 100 SE18G24   29.87F VSB 1/2
CLINTON *      CLOUDY    52  50  93 SE16      30.00F FOG
DECORAH *      CLOUDY    48  48 100 S12G21    29.90R FOG
DUBUQUE        FOG       49  49 100 SE20G29   29.95F VSB 1/4
MONTICELLO *   FOG       52  50  93 SE17      29.93F VSB 1/2
OELWEIN *      CLOUDY    50  50 100 SE16      29.90R FOG
WATERLOO       CLOUDY    53  49  86 SE15      29.87F FOG
$$

IAZ064-065-067-068-078-201700-
   EAST CENTRAL IOWA

CITY           SKY/WX    TMP DP  RH WIND       PRES   REMARKS
DAVENPORT      CLOUDY    54  50  86 SE21      29.98F
IOWA CITY      CLOUDY    57  52  83 SE20      29.94F
MUSCATINE *    CLOUDY    57  52  82 SE14G21   29.96F HAZE
QUAD CITIES    CLOUDY    55  50  83 SE10      29.99F HAZE
$$

IAZ062-063-075>077-085>089-095>099-201700-
   SOUTHEAST IOWA

CITY           SKY/WX    TMP DP  RH WIND       PRES   REMARKS
BURLINGTON     CLOUDY    59  52  77 SE13      29.96F
FAIRFIELD *    MOSUNNY   61  52  72 SE17G25   29.89F
KEOKUK *       CLOUDY    59  52  77 SE10      29.94F
OTTUMWA        MOSUNNY   63  55  75 S23       29.86F
WASHINGTON *   CLOUDY    57  54  88 S21G28    29.92F
$$

ABBREVIATIONS USED IN REMARKS
   TC - TEMPERATURES IN CELSIUS
  WCI - WIND CHILL INDEX
   HX - HEAT INDEX
  VSB - VISIBILITY
$$





USA.gov is the U.S. government's official web portal to all federal, state and local government web resources and services.